Location: *
(41.1456°N, 73.9950°W)
Time: 16:34:27
(UTC+00:00)

Daily predictions for brighter satellites

Satellite Brightness Start Highest point End
(mag) Time Altitude Azimuth Time Altitude Azimuth Time Altitude Azimuth
Cosmos 2219 3.5 23:13:26 10° S 23:18:55 47° ESE 23:24:24 10° NE
Meteor 2-9 Rocket 4.3 23:14:01 10° S 23:19:47 88° W 23:25:26 10° N
Cosmos 405 Rocket 4.2 23:18:04 10° SE 23:20:22 16° E 23:22:40 10° NE
USA 116 3.4 23:17:42 10° NNE 23:21:26 81° ESE 23:24:45 10° S
Cosmos 2297 Rocket 2.9 23:18:11 10° SSE 23:23:04 31° ESE 23:27:58 10° NE
Cosmos 1378 3.8 23:19:35 10° NNW 23:23:18 62° W 23:27:00 10° S
Okean 1 Rocket 3.1 23:21:07 10° S 23:25:22 59° E 23:29:40 10° NNE
Cosmos 1939 Rocket 3.4 23:23:22 10° SE 23:26:54 36° ENE 23:30:28 10° N
Cosmos 1025 Rocket 3.2 23:26:47 10° NNW 23:31:03 75° W 23:35:18 10° S
Orbus 7S? 4.2 23:28:59 10° SSW 23:32:41 59° SE 23:40:58 10° NE
Cosmos 1441 Rocket 3.2 23:29:06 10° S 23:32:54 89° W 23:36:41 10° N
FREGAT/IRIS 4.2 23:32:34 11° ESE 23:34:07 16° ENE 23:35:56 10° NNE
Aureole 1 Rocket 3.5 23:30:51 10° NNW 23:35:27 60° WSW 23:39:00 10° S
HJ-1C 4.1 23:36:09 10° SE 23:39:14 34° ENE 23:42:20 10° N
Cosmos 2074 Rocket 4.4 23:36:06 10° NNW 23:42:17 69° W 23:48:25 10° S
Cosmos 1190 Rocket 4.4 23:38:26 10° N 23:43:27 42° ENE 23:48:24 10° SE
Cosmos 389 Rocket 3.1 23:40:44 10° N 23:43:53 33° ENE 23:47:00 10° SE
H-2A R/B 3.4 23:42:18 13° E 23:44:49 18° ENE 23:48:11 10° NNE
CSL-04 Rocket 4.3 23:42:50 10° S 23:48:16 61° WSW 23:53:47 10° NNW
Cosmos 614 Rocket 4.2 23:43:18 10° N 23:48:22 49° ENE 23:53:21 10° SE
MONITOR-E 4.3 23:47:58 10° SE 23:50:34 40° ENE 23:53:14 10° N
Cosmos 2181 Rocket 4.4 23:46:07 10° SSE 23:51:51 40° E 23:57:43 10° NNE
YAOGAN 1 3.7 23:49:32 10° S 23:53:41 46° W 23:57:53 10° NNW
Cosmos 1544 4.2 23:51:21 10° SSW 23:54:47 46° W 23:58:18 10° N
SAR-Lupe-2 3.8 23:52:11 10° NNE 23:55:37 43° E 23:58:59 10° S
Resurs 01 Rocket 3.7 23:55:33 11° ENE 23:55:39 11° ENE 23:56:59 10° NE
